Retour au catalogue

TITAN 3C TRANSTAGE DEB

ActifHEO
NORAD 36984·DEBRIS·🇺🇸 United States

Lancé Dec 21, 1965 depuis Cape Canaveral Space Force Station

Loading…

Prochains Passages (prochaines 24 heures)

TLE

FraisSource: Space-Track

Époque: Sep 13, 2026, 21:12 UTC

1 36984U 65108DQ  26256.88350160  .00001096  00000-0  20724-2 0  9995
2 36984  26.4185 172.2202 4103032  18.8615 352.7461  6.77921334648239

Suivez TITAN 3C TRANSTAGE DEB en temps réel avec AllMySat

Download on the App Store